Time,TemperatureF,DewpointF,PressureIn,WindDirection,WindDirectionDegrees,WindSpeedMPH,WindSpeedGustMPH,Humidity,HourlyPrecipIn,Conditions,Clouds,dailyrainin,SoftwareType,DateUTC
2013-07-23 00:02:00,73.0,-99.9,29.85,SSE,155,11.0,-999.0,-999,-99.99,,,-99.99,,2013-07-23 04:02:00,
2013-07-23 00:11:00,73.0,-99.9,29.85,SSE,155,11.0,-999.0,-999,-99.99,,,-99.99,,2013-07-23 04:11:00,
2013-07-23 00:22:00,73.0,-99.9,29.84,SSE,167,11.0,-999.0,-999,-99.99,,,-99.99,,2013-07-23 04:22:00,
2013-07-23 00:32:00,73.0,-99.9,29.84,SSE,167,11.0,-999.0,-999,-99.99,,,-99.99,,2013-07-23 04:32:00,
2013-07-23 00:53:00,73.0,-99.9,29.83,SSE,158,11.0,-999.0,-999,-99.99,,,-99.99,,2013-07-23 04:53:00,
2013-07-23 01:02:00,73.0,-99.9,29.83,SSE,158,11.0,-999.0,-999,-99.99,,,-99.99,,2013-07-23 05:02:00,
2013-07-23 01:11:00,73.0,-99.9,29.83,SSE,158,11.0,-999.0,-999,-99.99,,,-99.99,,2013-07-23 05:11:00,
2013-07-23 01:22:00,73.0,-99.9,29.82,SE,146,9.0,-999.0,-999,-99.99,,,-99.99,,2013-07-23 05:22:00,
2013-07-23 01:33:00,73.0,-99.9,29.82,SE,146,9.0,-999.0,-999,-99.99,,,-99.99,,2013-07-23 05:33:00,
2013-07-23 01:52:00,72.0,-99.9,29.80,SE,142,10.0,-999.0,-999,-99.99,,,-99.99,,2013-07-23 05:52:00,
2013-07-23 02:01:00,72.0,-99.9,29.80,SE,142,10.0,-999.0,-999,-99.99,,,-99.99,,2013-07-23 06:01:00,
2013-07-23 02:11:00,72.0,-99.9,29.80,SE,142,10.0,-999.0,-999,-99.99,,,-99.99,,2013-07-23 06:11:00,
2013-07-23 02:22:00,73.0,-99.9,29.78,SE,139,9.0,-999.0,-999,-99.99,,,-99.99,,2013-07-23 06:22:00,
2013-07-23 02:33:00,73.0,-99.9,29.78,SE,139,9.0,-999.0,-999,-99.99,,,-99.99,,2013-07-23 06:33:00,
2013-07-23 02:52:00,73.0,-99.9,29.77,SSE,165,15.0,-999.0,-999,-99.99,,,-99.99,,2013-07-23 06:52:00,
2013-07-23 03:02:00,73.0,-99.9,29.77,SSE,165,15.0,-999.0,-999,-99.99,,,-99.99,,2013-07-23 07:02:00,
2013-07-23 03:22:00,73.0,-99.9,29.76,SSE,168,11.0,-999.0,-999,-99.99,,,-99.99,,2013-07-23 07:22:00,
2013-07-23 03:33:00,73.0,-99.9,29.76,SSE,168,11.0,-999.0,-999,-99.99,,,-99.99,,2013-07-23 07:33:00,
2013-07-23 03:52:00,73.0,-99.9,29.74,SSE,164,9.0,-999.0,-999,-99.99,,,-99.99,,2013-07-23 07:52:00,
2013-07-23 04:01:00,73.0,-99.9,29.74,SSE,164,9.0,-999.0,-999,-99.99,,,-99.99,,2013-07-23 08:01:00,
2013-07-23 04:11:00,73.0,-99.9,29.74,SSE,164,9.0,-999.0,-999,-99.99,,,-99.99,,2013-07-23 08:11:00,
2013-07-23 04:33:00,73.0,-99.9,29.73,South,172,9.0,-999.0,-999,-99.99,,,-99.99,,2013-07-23 08:33:00,
2013-07-23 04:52:00,73.0,-99.9,29.72,South,182,9.0,-999.0,-999,-99.99,,,-99.99,,2013-07-23 08:52:00,
2013-07-23 05:01:00,73.0,-99.9,29.72,South,182,9.0,-999.0,-999,-99.99,,,-99.99,,2013-07-23 09:01:00,
2013-07-23 05:11:00,73.0,-99.9,29.72,South,182,9.0,-999.0,-999,-99.99,,,-99.99,,2013-07-23 09:11:00,
2013-07-23 05:33:00,74.0,-99.9,29.71,SSW,195,11.0,-999.0,-999,-99.99,,,-99.99,,2013-07-23 09:33:00,
2013-07-23 05:53:00,73.0,-99.9,29.71,SSW,196,12.0,-999.0,-999,-99.99,,,-99.99,,2013-07-23 09:53:00,
2013-07-23 06:02:00,73.0,-99.9,29.71,SSW,196,12.0,-999.0,-999,-99.99,,,-99.99,,2013-07-23 10:02:00,
2013-07-23 06:11:00,73.0,-99.9,29.71,SSW,196,12.0,-999.0,-999,-99.99,,,-99.99,,2013-07-23 10:11:00,
2013-07-23 06:22:00,73.0,-99.9,29.70,South,190,10.0,-999.0,-999,-99.99,,,-99.99,,2013-07-23 10:22:00,
2013-07-23 06:32:00,73.0,-99.9,29.70,South,190,10.0,-999.0,-999,-99.99,,,-99.99,,2013-07-23 10:32:00,
2013-07-23 06:44:00,73.0,-99.9,29.70,South,190,10.0,-999.0,-999,-99.99,,,-99.99,,2013-07-23 10:44:00,
2013-07-23 06:52:00,73.0,-99.9,29.69,SSW,207,10.0,-999.0,-999,-99.99,,,-99.99,,2013-07-23 10:52:00,
2013-07-23 07:02:00,73.0,-99.9,29.69,SSW,207,10.0,-999.0,-999,-99.99,,,-99.99,,2013-07-23 11:02:00,
2013-07-23 07:12:00,73.0,-99.9,29.69,SSW,207,10.0,-999.0,-999,-99.99,,,-99.99,,2013-07-23 11:12:00,
2013-07-23 07:32:00,73.0,-99.9,29.68,SSW,196,14.0,-999.0,-999,-99.99,,,-99.99,,2013-07-23 11:32:00,
2013-07-23 07:52:00,74.0,-99.9,29.67,SSW,197,15.0,-999.0,-999,-99.99,,,-99.99,,2013-07-23 11:52:00,
2013-07-23 08:02:00,74.0,-99.9,29.67,SSW,197,15.0,-999.0,-999,-99.99,,,-99.99,,2013-07-23 12:02:00,
2013-07-23 08:11:00,74.0,-99.9,29.67,SSW,197,15.0,-999.0,-999,-99.99,,,-99.99,,2013-07-23 12:11:00,
2013-07-23 08:33:00,74.0,-99.9,29.66,SSW,195,15.0,-999.0,-999,-99.99,,,-99.99,,2013-07-23 12:33:00,
2013-07-23 09:02:00,74.0,-99.9,29.65,SSW,196,14.0,-999.0,-999,-99.99,,,-99.99,,2013-07-23 13:02:00,
2013-07-23 09:11:00,74.0,-99.9,29.65,SSW,196,14.0,-999.0,-999,-99.99,,,-99.99,,2013-07-23 13:11:00,
2013-07-23 09:22:00,75.0,-99.9,29.64,SSW,202,13.0,-999.0,-999,-99.99,,,-99.99,,2013-07-23 13:22:00,
2013-07-23 09:32:00,75.0,-99.9,29.64,SSW,202,13.0,-999.0,-999,-99.99,,,-99.99,,2013-07-23 13:32:00,
2013-07-23 09:43:00,75.0,-99.9,29.64,SSW,202,13.0,-999.0,-999,-99.99,,,-99.99,,2013-07-23 13:43:00,
2013-07-23 09:53:00,75.0,-99.9,29.63,SW,229,14.0,-999.0,-999,-99.99,,,-99.99,,2013-07-23 13:53:00,
2013-07-23 10:02:00,75.0,-99.9,29.63,SW,229,14.0,-999.0,-999,-99.99,,,-99.99,,2013-07-23 14:02:00,
2013-07-23 10:12:00,75.0,-99.9,29.63,SW,229,14.0,-999.0,-999,-99.99,,,-99.99,,2013-07-23 14:12:00,
2013-07-23 10:33:00,75.0,-99.9,29.62,SW,225,12.0,-999.0,-999,-99.99,,,-99.99,,2013-07-23 14:33:00,
2013-07-23 10:54:00,75.0,-99.9,29.62,SW,215,11.0,-999.0,-999,-99.99,,,-99.99,,2013-07-23 14:54:00,
2013-07-23 11:03:00,75.0,-99.9,29.62,SW,215,11.0,-999.0,-999,-99.99,,,-99.99,,2013-07-23 15:03:00,
2013-07-23 11:11:00,75.0,-99.9,29.62,SW,215,11.0,-999.0,-999,-99.99,,,-99.99,,2013-07-23 15:11:00,
2013-07-23 11:24:00,76.0,-99.9,29.62,SW,223,12.0,-999.0,-999,-99.99,,,-99.99,,2013-07-23 15:24:00,
2013-07-23 11:32:00,76.0,-99.9,29.62,SW,223,12.0,-999.0,-999,-99.99,,,-99.99,,2013-07-23 15:32:00,
2013-07-23 11:43:00,76.0,-99.9,29.62,SW,223,12.0,-999.0,-999,-99.99,,,-99.99,,2013-07-23 15:43:00,
2013-07-23 11:52:00,77.0,-99.9,29.61,SW,229,12.0,-999.0,-999,-99.99,,,-99.99,,2013-07-23 15:52:00,
2013-07-23 12:01:00,77.0,-99.9,29.61,SW,229,12.0,-999.0,-999,-99.99,,,-99.99,,2013-07-23 16:01:00,
2013-07-23 12:12:00,77.0,-99.9,29.61,SW,229,12.0,-999.0,-999,-99.99,,,-99.99,,2013-07-23 16:12:00,
2013-07-23 12:33:00,78.0,-99.9,29.61,SW,219,15.0,-999.0,-999,-99.99,,,-99.99,,2013-07-23 16:33:00,
2013-07-23 12:43:00,78.0,-99.9,29.61,SW,219,15.0,-999.0,-999,-99.99,,,-99.99,,2013-07-23 16:43:00,
2013-07-23 12:52:00,77.0,-99.9,29.60,SW,226,14.0,-999.0,-999,-99.99,,,-99.99,,2013-07-23 16:52:00,
2013-07-23 13:02:00,77.0,-99.9,29.60,SW,226,14.0,-999.0,-999,-99.99,,,-99.99,,2013-07-23 17:02:00,
2013-07-23 13:11:00,77.0,-99.9,29.60,SW,226,14.0,-999.0,-999,-99.99,,,-99.99,,2013-07-23 17:11:00,
2013-07-23 13:22:00,78.0,-99.9,29.59,WSW,257,15.0,-999.0,-999,-99.99,,,-99.99,,2013-07-23 17:22:00,
2013-07-23 13:32:00,78.0,-99.9,29.59,WSW,257,15.0,-999.0,-999,-99.99,,,-99.99,,2013-07-23 17:32:00,
2013-07-23 13:57:00,79.0,-99.9,29.58,WSW,247,12.0,-999.0,-999,-99.99,,,-99.99,,2013-07-23 17:57:00,
2013-07-23 14:04:00,79.0,-99.9,29.58,WSW,247,12.0,-999.0,-999,-99.99,,,-99.99,,2013-07-23 18:04:00,
2013-07-23 14:26:00,79.0,-99.9,29.57,WSW,242,17.0,-999.0,-999,-99.99,,,-99.99,,2013-07-23 18:26:00,
2013-07-23 14:36:00,79.0,-99.9,29.57,WSW,242,17.0,-999.0,-999,-99.99,,,-99.99,,2013-07-23 18:36:00,
2013-07-23 14:58:00,79.0,-99.9,29.56,SW,231,15.0,-999.0,-999,-99.99,,,-99.99,,2013-07-23 18:58:00,
2013-07-23 15:15:00,79.0,-99.9,29.56,SW,231,15.0,-999.0,-999,-99.99,,,-99.99,,2013-07-23 19:15:00,
2013-07-23 15:36:00,79.0,-99.9,29.56,WSW,258,20.0,-999.0,-999,-99.99,,,-99.99,,2013-07-23 19:36:00,
2013-07-23 15:56:00,79.0,-99.9,29.55,WSW,249,15.0,-999.0,-999,-99.99,,,-99.99,,2013-07-23 19:56:00,
2013-07-23 16:07:00,79.0,-99.9,29.55,WSW,249,15.0,-999.0,-999,-99.99,,,-99.99,,2013-07-23 20:07:00,
2013-07-23 16:15:00,79.0,-99.9,29.55,WSW,249,15.0,-999.0,-999,-99.99,,,-99.99,,2013-07-23 20:15:00,
2013-07-23 16:25:00,79.0,-99.9,29.55,West,266,20.0,-999.0,-999,-99.99,,,-99.99,,2013-07-23 20:25:00,
2013-07-23 16:35:00,79.0,-99.9,29.55,West,266,20.0,-999.0,-999,-99.99,,,-99.99,,2013-07-23 20:35:00,
2013-07-23 16:48:00,79.0,-99.9,29.55,West,266,20.0,-999.0,-999,-99.99,,,-99.99,,2013-07-23 20:48:00,
2013-07-23 16:59:00,79.0,-99.9,29.55,WSW,257,12.0,-999.0,-999,-99.99,,,-99.99,,2013-07-23 20:59:00,
2013-07-23 17:05:00,79.0,-99.9,29.55,WSW,257,12.0,-999.0,-999,-99.99,,,-99.99,,2013-07-23 21:05:00,
2013-07-23 17:15:00,79.0,-99.9,29.55,WSW,257,12.0,-999.0,-999,-99.99,,,-99.99,,2013-07-23 21:15:00,
2013-07-23 17:24:00,78.0,-99.9,29.55,West,269,17.0,-999.0,-999,-99.99,,,-99.99,,2013-07-23 21:24:00,
2013-07-23 17:57:00,79.0,-99.9,29.54,West,263,11.0,-999.0,-999,-99.99,,,-99.99,,2013-07-23 21:57:00,
2013-07-23 18:06:00,79.0,-99.9,29.54,West,263,11.0,-999.0,-999,-99.99,,,-99.99,,2013-07-23 22:06:00,
2013-07-23 18:13:00,79.0,-99.9,29.54,West,263,11.0,-999.0,-999,-99.99,,,-99.99,,2013-07-23 22:13:00,
2013-07-23 18:36:00,79.0,-99.9,29.53,West,262,16.0,-999.0,-999,-99.99,,,-99.99,,2013-07-23 22:36:00,
2013-07-23 18:47:00,79.0,-99.9,29.53,West,262,16.0,-999.0,-999,-99.99,,,-99.99,,2013-07-23 22:47:00,
2013-07-23 19:06:00,78.0,-99.9,29.54,West,267,15.0,-999.0,-999,-99.99,,,-99.99,,2013-07-23 23:06:00,
2013-07-23 19:15:00,78.0,-99.9,29.54,West,267,15.0,-999.0,-999,-99.99,,,-99.99,,2013-07-23 23:15:00,
2013-07-23 19:26:00,78.0,-99.9,29.55,WNW,284,10.0,-999.0,-999,-99.99,,,-99.99,,2013-07-23 23:26:00,
2013-07-23 19:47:00,78.0,-99.9,29.55,WNW,284,10.0,-999.0,-999,-99.99,,,-99.99,,2013-07-23 23:47:00,
2013-07-23 20:11:00,78.0,-99.9,29.55,West,265,8.0,-999.0,-999,-99.99,,,-99.99,,2013-07-24 00:11:00,
2013-07-23 20:26:00,77.0,-99.9,29.55,WSW,244,11.0,-999.0,-999,-99.99,,,-99.99,,2013-07-24 00:26:00,
2013-07-23 20:34:00,77.0,-99.9,29.55,WSW,244,11.0,-999.0,-999,-99.99,,,-99.99,,2013-07-24 00:34:00,
2013-07-23 20:58:00,77.0,-99.9,29.55,West,262,10.0,-999.0,-999,-99.99,,,-99.99,,2013-07-24 00:58:00,
2013-07-23 21:04:00,77.0,-99.9,29.55,West,262,10.0,-999.0,-999,-99.99,,,-99.99,,2013-07-24 01:04:00,
2013-07-23 21:16:00,77.0,-99.9,29.55,West,262,10.0,-999.0,-999,-99.99,,,-99.99,,2013-07-24 01:16:00,
2013-07-23 21:35:00,76.0,-99.9,29.56,West,261,9.0,-999.0,-999,-99.99,,,-99.99,,2013-07-24 01:35:00,
2013-07-23 22:02:00,76.0,-99.9,29.56,West,265,11.0,-999.0,-999,-99.99,,,-99.99,,2013-07-24 02:02:00,
2013-07-23 22:19:00,76.0,-99.9,29.56,West,265,11.0,-999.0,-999,-99.99,,,-99.99,,2013-07-24 02:19:00,
2013-07-23 22:27:00,76.0,-99.9,29.57,WNW,284,10.0,-999.0,-999,-99.99,,,-99.99,,2013-07-24 02:27:00,
2013-07-23 22:40:00,76.0,-99.9,29.57,WNW,284,10.0,-999.0,-999,-99.99,,,-99.99,,2013-07-24 02:40:00,
2013-07-23 22:58:00,76.0,-99.9,29.56,WNW,298,3.0,-999.0,-999,-99.99,,,-99.99,,2013-07-24 02:58:00,
2013-07-23 23:06:00,76.0,-99.9,29.56,WNW,298,3.0,-999.0,-999,-99.99,,,-99.99,,2013-07-24 03:06:00,
2013-07-23 23:13:00,76.0,-99.9,29.56,WNW,298,3.0,-999.0,-999,-99.99,,,-99.99,,2013-07-24 03:13:00,
2013-07-23 23:40:00,75.0,-99.9,29.57,West,270,9.0,-999.0,-999,-99.99,,,-99.99,,2013-07-24 03:40:00,